Year,Month,Day,Hour,Minute,Value (Times are PST for temperature in C)
2012,10,28,00,00,7.10
2012,10,28,00,01,7.10
2012,10,28,00,02,7.10
2012,10,28,00,03,7.10
2012,10,28,00,04,7.10
2012,10,28,00,05,7.10
2012,10,28,00,06,7.10
2012,10,28,00,07,7.10
2012,10,28,00,08,7.10
2012,10,28,00,09,7.00
2012,10,28,00,10,7.00
2012,10,28,00,11,7.00
2012,10,28,00,12,7.00
2012,10,28,00,13,7.00
2012,10,28,00,14,7.00
2012,10,28,00,15,6.90
2012,10,28,00,16,6.90
2012,10,28,00,17,6.90
2012,10,28,00,18,6.90
2012,10,28,00,19,6.90
2012,10,28,00,20,6.80
2012,10,28,00,21,6.80
2012,10,28,00,22,6.80
2012,10,28,00,23,6.80
2012,10,28,00,24,6.80
2012,10,28,00,25,6.80
2012,10,28,00,26,6.70
2012,10,28,00,27,6.70
2012,10,28,00,28,6.70
2012,10,28,00,29,6.70
2012,10,28,00,30,6.70
2012,10,28,00,31,6.70
2012,10,28,00,32,6.70
2012,10,28,00,33,6.70
2012,10,28,00,34,6.70
2012,10,28,00,35,6.70
2012,10,28,00,36,6.70
2012,10,28,00,37,6.70
2012,10,28,00,38,6.60
2012,10,28,00,39,6.60
2012,10,28,00,40,6.60
2012,10,28,00,41,6.60
2012,10,28,00,42,6.60
2012,10,28,00,43,6.60
2012,10,28,00,44,6.60
2012,10,28,00,45,6.60
2012,10,28,00,46,6.60
2012,10,28,00,47,6.50
2012,10,28,00,48,6.50
2012,10,28,00,49,6.50
2012,10,28,00,50,6.50
2012,10,28,00,51,6.50
2012,10,28,00,52,6.50
2012,10,28,00,53,6.50
2012,10,28,00,54,6.40
2012,10,28,00,55,6.40
2012,10,28,00,56,6.40
2012,10,28,00,57,6.40
2012,10,28,00,58,6.40
2012,10,28,00,59,6.40
2012,10,28,01,00,6.40
2012,10,28,01,01,6.40
2012,10,28,01,02,6.40
2012,10,28,01,03,6.40
2012,10,28,01,04,6.40
2012,10,28,01,05,6.40
2012,10,28,01,06,6.40
2012,10,28,01,07,6.40
2012,10,28,01,08,6.40
2012,10,28,01,09,6.40
2012,10,28,01,10,6.40
2012,10,28,01,11,6.40
2012,10,28,01,12,6.40
2012,10,28,01,13,6.40
2012,10,28,01,14,6.40
2012,10,28,01,15,6.40
2012,10,28,01,16,6.40
2012,10,28,01,17,6.40
2012,10,28,01,18,6.40
2012,10,28,01,19,6.40
2012,10,28,01,20,6.40
2012,10,28,01,21,6.40
2012,10,28,01,22,6.40
2012,10,28,01,23,6.40
2012,10,28,01,24,6.40
2012,10,28,01,25,6.40
2012,10,28,01,26,6.40
2012,10,28,01,27,6.50
2012,10,28,01,28,6.50
2012,10,28,01,29,6.50
2012,10,28,01,30,6.50
2012,10,28,01,31,6.50
2012,10,28,01,32,6.50
2012,10,28,01,33,6.50
2012,10,28,01,34,6.50
2012,10,28,01,35,6.50
2012,10,28,01,36,6.50
2012,10,28,01,37,6.50
2012,10,28,01,38,6.50
2012,10,28,01,39,6.50
2012,10,28,01,40,6.50
2012,10,28,01,41,6.50
2012,10,28,01,42,6.50
2012,10,28,01,43,6.50
2012,10,28,01,44,6.50
2012,10,28,01,45,6.50
2012,10,28,01,46,6.50
2012,10,28,01,47,6.50
2012,10,28,01,48,6.50
2012,10,28,01,49,6.50
2012,10,28,01,50,6.50
2012,10,28,01,51,6.50
2012,10,28,01,52,6.60
2012,10,28,01,53,6.60
2012,10,28,01,54,6.60
2012,10,28,01,55,6.60
2012,10,28,01,56,6.60
2012,10,28,01,57,6.60
2012,10,28,01,58,6.60
2012,10,28,01,59,6.60
2012,10,28,02,00,6.60
2012,10,28,02,01,6.60
2012,10,28,02,02,6.60
2012,10,28,02,03,6.60
2012,10,28,02,04,6.60
2012,10,28,02,05,6.60
2012,10,28,02,06,6.60
2012,10,28,02,07,6.60
2012,10,28,02,08,6.60
2012,10,28,02,09,6.60
2012,10,28,02,10,6.60
2012,10,28,02,11,6.60
2012,10,28,02,12,6.60
2012,10,28,02,13,6.60
2012,10,28,02,14,6.60
2012,10,28,02,15,6.60
2012,10,28,02,16,6.60
2012,10,28,02,17,6.60
2012,10,28,02,18,6.60
2012,10,28,02,19,6.60
2012,10,28,02,20,6.60
2012,10,28,02,21,6.60
2012,10,28,02,22,6.60
2012,10,28,02,23,6.60
2012,10,28,02,24,6.60
2012,10,28,02,25,6.60
2012,10,28,02,26,6.60
2012,10,28,02,27,6.60
2012,10,28,02,28,6.60
2012,10,28,02,29,6.60
2012,10,28,02,30,6.60
2012,10,28,02,31,6.60
2012,10,28,02,32,6.60
2012,10,28,02,33,6.60
2012,10,28,02,34,6.60
2012,10,28,02,35,6.60
2012,10,28,02,36,6.60
2012,10,28,02,37,6.60
2012,10,28,02,38,6.60
2012,10,28,02,39,6.60
2012,10,28,02,40,6.60
2012,10,28,02,41,6.60
2012,10,28,02,42,6.60
2012,10,28,02,43,6.60
2012,10,28,02,44,6.60
2012,10,28,02,45,6.60
2012,10,28,02,46,6.60
2012,10,28,02,47,6.60
2012,10,28,02,48,6.60
2012,10,28,02,49,6.60
2012,10,28,02,50,6.60
2012,10,28,02,51,6.60
2012,10,28,02,52,6.60
2012,10,28,02,53,6.60
2012,10,28,02,54,6.70
2012,10,28,02,55,6.70
2012,10,28,02,56,6.70
2012,10,28,02,57,6.70
2012,10,28,02,58,6.70
2012,10,28,02,59,6.70
2012,10,28,03,00,6.70
2012,10,28,03,01,6.70
2012,10,28,03,02,6.70
2012,10,28,03,03,6.60
2012,10,28,03,04,6.60
2012,10,28,03,05,6.60
2012,10,28,03,06,6.60
2012,10,28,03,07,6.60
2012,10,28,03,08,6.60
2012,10,28,03,09,6.60
2012,10,28,03,10,6.60
2012,10,28,03,11,6.60
2012,10,28,03,12,6.60
2012,10,28,03,13,6.60
2012,10,28,03,14,6.60
2012,10,28,03,15,6.60
2012,10,28,03,16,6.60
2012,10,28,03,17,6.60
2012,10,28,03,18,6.60
2012,10,28,03,19,6.60
2012,10,28,03,20,6.60
2012,10,28,03,21,6.60
2012,10,28,03,22,6.60
2012,10,28,03,23,6.70
2012,10,28,03,24,6.70
2012,10,28,03,25,6.70
2012,10,28,03,26,6.70
2012,10,28,03,27,6.70
2012,10,28,03,28,6.70
2012,10,28,03,29,6.70
2012,10,28,03,30,6.70
2012,10,28,03,31,6.70
2012,10,28,03,32,6.70
2012,10,28,03,33,6.70
2012,10,28,03,34,6.70
2012,10,28,03,35,6.70
2012,10,28,03,36,6.70
2012,10,28,03,37,6.70
2012,10,28,03,38,6.70
2012,10,28,03,39,6.70
2012,10,28,03,40,6.70
2012,10,28,03,41,6.70
2012,10,28,03,42,6.70
2012,10,28,03,43,6.70
2012,10,28,03,44,6.70
2012,10,28,03,45,6.70
2012,10,28,03,46,6.70
2012,10,28,03,47,6.70
2012,10,28,03,48,6.70
2012,10,28,03,49,6.70
2012,10,28,03,50,6.70
2012,10,28,03,51,6.70
2012,10,28,03,52,6.70
2012,10,28,03,53,6.70
2012,10,28,03,54,6.70
2012,10,28,03,55,6.70
2012,10,28,03,56,6.60
2012,10,28,03,57,6.60
2012,10,28,03,58,6.60
2012,10,28,03,59,6.60
2012,10,28,04,00,6.60
2012,10,28,04,01,6.60
2012,10,28,04,02,6.50
2012,10,28,04,03,6.50
2012,10,28,04,04,6.50
2012,10,28,04,05,6.50
2012,10,28,04,06,6.50
2012,10,28,04,07,6.50
2012,10,28,04,08,6.50
2012,10,28,04,09,6.50
2012,10,28,04,10,6.50
2012,10,28,04,11,6.50
2012,10,28,04,12,6.50
2012,10,28,04,13,6.50
2012,10,28,04,14,6.50
2012,10,28,04,15,6.60
2012,10,28,04,16,6.60
2012,10,28,04,17,6.60
2012,10,28,04,18,6.60
2012,10,28,04,19,6.50
2012,10,28,04,20,6.50
2012,10,28,04,21,6.50
2012,10,28,04,22,6.50
2012,10,28,04,23,6.50
2012,10,28,04,24,6.50
2012,10,28,04,25,6.50
2012,10,28,04,26,6.50
2012,10,28,04,27,6.50
2012,10,28,04,28,6.50
2012,10,28,04,29,6.50
2012,10,28,04,30,6.50
2012,10,28,04,31,6.50
2012,10,28,04,32,6.50
2012,10,28,04,33,6.50
2012,10,28,04,34,6.50
2012,10,28,04,35,6.50
2012,10,28,04,36,6.50
2012,10,28,04,37,6.50
2012,10,28,04,38,6.50
2012,10,28,04,39,6.50
2012,10,28,04,40,6.60
2012,10,28,04,41,6.60
2012,10,28,04,42,6.60
2012,10,28,04,43,6.60
2012,10,28,04,44,6.60
2012,10,28,04,45,6.60
2012,10,28,04,46,6.60
2012,10,28,04,47,6.50
2012,10,28,04,48,6.60
2012,10,28,04,49,6.50
2012,10,28,04,50,6.50
2012,10,28,04,51,6.60
2012,10,28,04,52,6.60
2012,10,28,04,53,6.60
2012,10,28,04,54,6.60
2012,10,28,04,55,6.60
2012,10,28,04,56,6.60
2012,10,28,04,57,6.60
2012,10,28,04,58,6.60
2012,10,28,04,59,6.60
2012,10,28,05,00,6.60
2012,10,28,05,01,6.60
2012,10,28,05,02,6.60
2012,10,28,05,03,6.50
2012,10,28,05,04,6.50
2012,10,28,05,05,6.50
2012,10,28,05,06,6.50
2012,10,28,05,07,6.50
2012,10,28,05,08,6.50
2012,10,28,05,09,6.50
2012,10,28,05,10,6.50
2012,10,28,05,11,6.50
2012,10,28,05,12,6.50
2012,10,28,05,13,6.50
2012,10,28,05,14,6.50
2012,10,28,05,15,6.50
2012,10,28,05,16,6.50
2012,10,28,05,17,6.50
2012,10,28,05,18,6.50
2012,10,28,05,19,6.50
2012,10,28,05,20,6.50
2012,10,28,05,21,6.50
2012,10,28,05,22,6.50
2012,10,28,05,23,6.50
2012,10,28,05,24,6.50
2012,10,28,05,25,6.50
2012,10,28,05,26,6.50
2012,10,28,05,27,6.50
2012,10,28,05,28,6.60
2012,10,28,05,29,6.60
2012,10,28,05,30,6.60
2012,10,28,05,31,6.60
2012,10,28,05,32,6.60
2012,10,28,05,33,6.60
2012,10,28,05,34,6.60
2012,10,28,05,35,6.60
2012,10,28,05,36,6.60
2012,10,28,05,37,6.60
2012,10,28,05,38,6.60
2012,10,28,05,39,6.60
2012,10,28,05,40,6.60
2012,10,28,05,41,6.60
2012,10,28,05,42,6.60
2012,10,28,05,43,6.60
2012,10,28,05,44,6.60
2012,10,28,05,45,6.60
2012,10,28,05,46,6.60
2012,10,28,05,47,6.60
2012,10,28,05,48,6.60
2012,10,28,05,49,6.60
2012,10,28,05,50,6.60
2012,10,28,05,51,6.60
2012,10,28,05,52,6.60
2012,10,28,05,53,6.60
2012,10,28,05,54,6.60
2012,10,28,05,55,6.60
2012,10,28,05,56,6.60
2012,10,28,05,57,6.60
2012,10,28,05,58,6.60
2012,10,28,05,59,6.70
2012,10,28,06,00,6.60
2012,10,28,06,01,6.60
2012,10,28,06,02,6.60
2012,10,28,06,03,6.60
2012,10,28,06,04,6.60
2012,10,28,06,05,6.60
2012,10,28,06,06,6.60
2012,10,28,06,07,6.60
2012,10,28,06,08,6.60
2012,10,28,06,09,6.60
2012,10,28,06,10,6.60
2012,10,28,06,11,6.60
2012,10,28,06,12,6.60
2012,10,28,06,13,6.60
2012,10,28,06,14,6.60
2012,10,28,06,15,6.60
2012,10,28,06,16,6.60
2012,10,28,06,17,6.60
2012,10,28,06,18,6.60
2012,10,28,06,19,6.50
2012,10,28,06,20,6.50
2012,10,28,06,21,6.60
2012,10,28,06,22,6.60
2012,10,28,06,23,6.60
2012,10,28,06,24,6.50
2012,10,28,06,25,6.60
2012,10,28,06,26,6.60
2012,10,28,06,27,6.60
2012,10,28,06,28,6.60
2012,10,28,06,29,6.60
2012,10,28,06,30,6.60
2012,10,28,06,31,6.60
2012,10,28,06,32,6.60
2012,10,28,06,33,6.60
2012,10,28,06,34,6.60
2012,10,28,06,35,6.60
2012,10,28,06,36,6.60
2012,10,28,06,37,6.60
2012,10,28,06,38,6.60
2012,10,28,06,39,6.70
2012,10,28,06,40,6.70
2012,10,28,06,41,6.70
2012,10,28,06,42,6.70
2012,10,28,06,43,6.60
2012,10,28,06,44,6.60
2012,10,28,06,45,6.60
2012,10,28,06,46,6.60
2012,10,28,06,47,6.60
2012,10,28,06,48,6.60
2012,10,28,06,49,6.60
2012,10,28,06,50,6.60
2012,10,28,06,51,6.60
2012,10,28,06,52,6.60
2012,10,28,06,53,6.60
2012,10,28,06,54,6.60
2012,10,28,06,55,6.60
2012,10,28,06,56,6.60
2012,10,28,06,57,6.60
2012,10,28,06,58,6.60
2012,10,28,06,59,6.60
2012,10,28,07,00,6.60
2012,10,28,07,01,6.60
2012,10,28,07,02,6.60
2012,10,28,07,03,6.60
2012,10,28,07,04,6.60
2012,10,28,07,05,6.60
2012,10,28,07,06,6.60
2012,10,28,07,07,6.60
2012,10,28,07,08,6.60
2012,10,28,07,09,6.60
2012,10,28,07,10,6.60
2012,10,28,07,11,6.60
2012,10,28,07,12,6.60
2012,10,28,07,13,6.60
2012,10,28,07,14,6.60
2012,10,28,07,15,6.60
2012,10,28,07,16,6.70
2012,10,28,07,17,6.70
2012,10,28,07,18,6.70
2012,10,28,07,19,6.70
2012,10,28,07,20,6.70
2012,10,28,07,21,6.70
2012,10,28,07,22,6.70
2012,10,28,07,23,6.70
2012,10,28,07,24,6.70
2012,10,28,07,25,6.70
2012,10,28,07,26,6.70
2012,10,28,07,27,6.70
2012,10,28,07,28,6.70
2012,10,28,07,29,6.70
2012,10,28,07,30,6.70
2012,10,28,07,31,6.70
2012,10,28,07,32,6.70
2012,10,28,07,33,6.70
2012,10,28,07,34,6.70
2012,10,28,07,35,6.70
2012,10,28,07,36,6.70
2012,10,28,07,37,6.70
2012,10,28,07,38,6.60
2012,10,28,07,39,6.60
2012,10,28,07,40,6.60
2012,10,28,07,41,6.60
2012,10,28,07,42,6.60
2012,10,28,07,43,6.60
2012,10,28,07,44,6.60
2012,10,28,07,45,6.60
2012,10,28,07,46,6.60
2012,10,28,07,47,6.60
2012,10,28,07,48,6.60
2012,10,28,07,49,6.60
2012,10,28,07,50,6.60
2012,10,28,07,51,6.60
2012,10,28,07,52,6.60
2012,10,28,07,53,6.60
2012,10,28,07,54,6.60
2012,10,28,07,55,6.60
2012,10,28,07,56,6.60
2012,10,28,07,57,6.70
2012,10,28,07,58,6.70
2012,10,28,07,59,6.70
2012,10,28,08,00,6.70
2012,10,28,08,01,6.70
2012,10,28,08,02,6.70
2012,10,28,08,03,6.70
2012,10,28,08,04,6.70
2012,10,28,08,05,6.70
2012,10,28,08,06,6.70
2012,10,28,08,07,6.70
2012,10,28,08,08,6.70
2012,10,28,08,09,6.70
2012,10,28,08,10,6.70
2012,10,28,08,11,6.70
2012,10,28,08,12,6.70
2012,10,28,08,13,6.70
2012,10,28,08,14,6.70
2012,10,28,08,15,6.70
2012,10,28,08,16,6.70
2012,10,28,08,17,6.70
2012,10,28,08,18,6.70
2012,10,28,08,19,6.70
2012,10,28,08,20,6.70
2012,10,28,08,21,6.70
2012,10,28,08,22,6.70
2012,10,28,08,23,6.70
2012,10,28,08,24,6.70
2012,10,28,08,25,6.80
2012,10,28,08,26,6.80
2012,10,28,08,27,6.80
2012,10,28,08,28,6.80
2012,10,28,08,29,6.80
2012,10,28,08,30,6.80
2012,10,28,08,31,6.80
2012,10,28,08,32,6.80
2012,10,28,08,33,6.80
2012,10,28,08,34,6.80
2012,10,28,08,35,6.80
2012,10,28,08,36,6.80
2012,10,28,08,37,6.80
2012,10,28,08,38,6.80
2012,10,28,08,39,6.80
2012,10,28,08,40,6.80
2012,10,28,08,41,6.80
2012,10,28,08,42,6.80
2012,10,28,08,43,6.80
2012,10,28,08,44,6.80
2012,10,28,08,45,6.80
2012,10,28,08,46,6.80
2012,10,28,08,47,6.80
2012,10,28,08,48,6.80
2012,10,28,08,49,6.80
2012,10,28,08,50,6.80
2012,10,28,08,51,6.80
2012,10,28,08,52,6.80
2012,10,28,08,53,6.80
2012,10,28,08,54,6.80
2012,10,28,08,55,6.80
2012,10,28,08,56,6.80
2012,10,28,08,57,6.80
2012,10,28,08,58,6.80
2012,10,28,08,59,6.80
2012,10,28,09,00,6.80
2012,10,28,09,01,6.80
2012,10,28,09,02,6.80
2012,10,28,09,03,6.80
2012,10,28,09,04,6.80
2012,10,28,09,05,6.90
2012,10,28,09,06,6.90
2012,10,28,09,07,6.90
2012,10,28,09,08,6.90
2012,10,28,09,09,6.90
2012,10,28,09,10,6.90
2012,10,28,09,11,6.90
2012,10,28,09,12,6.90
2012,10,28,09,13,7.00
2012,10,28,09,14,7.00
2012,10,28,09,15,7.00
2012,10,28,09,16,7.00
2012,10,28,09,17,7.00
2012,10,28,09,18,7.00
2012,10,28,09,19,7.00
2012,10,28,09,20,7.00
2012,10,28,09,21,7.00
2012,10,28,09,22,7.10
2012,10,28,09,23,7.10
2012,10,28,09,24,7.10
2012,10,28,09,25,7.10
2012,10,28,09,26,7.10
2012,10,28,09,27,7.10
2012,10,28,09,28,7.10
2012,10,28,09,29,7.10
2012,10,28,09,30,7.20
2012,10,28,09,31,7.20
2012,10,28,09,32,7.20
2012,10,28,09,33,7.20
2012,10,28,09,34,7.20
2012,10,28,09,35,7.30
2012,10,28,09,36,7.30
2012,10,28,09,37,7.30
2012,10,28,09,38,7.30
2012,10,28,09,39,7.30
2012,10,28,09,40,7.30
2012,10,28,09,41,7.30
2012,10,28,09,42,7.40
2012,10,28,09,43,7.40
2012,10,28,09,44,7.40
2012,10,28,09,45,7.40
2012,10,28,09,46,7.40
2012,10,28,09,47,7.40
2012,10,28,09,48,7.30
2012,10,28,09,49,7.30
2012,10,28,09,50,7.30
2012,10,28,09,51,7.30
2012,10,28,09,52,7.30
2012,10,28,09,53,7.30
2012,10,28,09,54,7.30
2012,10,28,09,55,7.30
2012,10,28,09,56,7.30
2012,10,28,09,57,7.30
2012,10,28,09,58,7.30
2012,10,28,09,59,7.30
2012,10,28,10,00,7.30
2012,10,28,10,01,7.30
2012,10,28,10,02,7.40
2012,10,28,10,03,7.40
2012,10,28,10,04,7.40
2012,10,28,10,05,7.40
2012,10,28,10,06,7.40
2012,10,28,10,07,7.40
2012,10,28,10,08,7.50
2012,10,28,10,09,7.50
2012,10,28,10,10,7.50
2012,10,28,10,11,7.60
2012,10,28,10,12,7.60
2012,10,28,10,13,7.60
2012,10,28,10,14,7.60
2012,10,28,10,15,7.70
2012,10,28,10,16,7.70
2012,10,28,10,17,7.70
2012,10,28,10,18,7.70
2012,10,28,10,19,7.80
2012,10,28,10,20,7.80
2012,10,28,10,21,7.80
2012,10,28,10,22,7.90
2012,10,28,10,23,7.90
2012,10,28,10,24,7.90
2012,10,28,10,25,7.90
2012,10,28,10,26,7.90
2012,10,28,10,27,7.90
2012,10,28,10,28,7.90
2012,10,28,10,29,7.90
2012,10,28,10,30,7.90
2012,10,28,10,31,7.90
2012,10,28,10,32,7.90
2012,10,28,10,33,7.90
2012,10,28,10,34,7.90
2012,10,28,10,35,8.00
2012,10,28,10,36,8.00
2012,10,28,10,37,8.00
2012,10,28,10,38,8.00
2012,10,28,10,39,8.10
2012,10,28,10,40,8.10
2012,10,28,10,41,8.10
2012,10,28,10,42,8.20
2012,10,28,10,43,8.20
2012,10,28,10,44,8.20
2012,10,28,10,45,8.20
2012,10,28,10,46,8.30
2012,10,28,10,47,8.30
2012,10,28,10,48,8.40
2012,10,28,10,49,8.40
2012,10,28,10,50,8.40
2012,10,28,10,51,8.50
2012,10,28,10,52,8.50
2012,10,28,10,53,8.60
2012,10,28,10,54,8.60
2012,10,28,10,55,8.70
2012,10,28,10,56,8.70
2012,10,28,10,57,8.70
2012,10,28,10,58,8.80
2012,10,28,10,59,8.80
2012,10,28,11,00,8.90
2012,10,28,11,01,8.90
2012,10,28,11,02,8.90
2012,10,28,11,03,9.00
2012,10,28,11,04,9.00
2012,10,28,11,05,9.10
2012,10,28,11,06,9.10
2012,10,28,11,07,9.20
2012,10,28,11,08,9.20
2012,10,28,11,09,9.20
2012,10,28,11,10,9.30
2012,10,28,11,11,9.30
2012,10,28,11,12,9.40
2012,10,28,11,13,9.40
2012,10,28,11,14,9.40
2012,10,28,11,15,9.50
2012,10,28,11,16,9.50
2012,10,28,11,17,9.60
2012,10,28,11,18,9.60
2012,10,28,11,19,9.60
2012,10,28,11,20,9.70
2012,10,28,11,21,9.70
2012,10,28,11,22,9.80
2012,10,28,11,23,9.80
2012,10,28,11,24,9.80
2012,10,28,11,25,9.80
2012,10,28,11,26,9.90
2012,10,28,11,27,10.00
2012,10,28,11,28,10.00
2012,10,28,11,29,10.10
2012,10,28,11,30,10.10
2012,10,28,11,31,10.10
2012,10,28,11,32,10.20
2012,10,28,11,33,10.20
2012,10,28,11,34,10.10
2012,10,28,11,35,10.20
2012,10,28,11,36,10.20
2012,10,28,11,37,10.20
2012,10,28,11,38,10.30
2012,10,28,11,39,10.30
2012,10,28,11,40,10.40
2012,10,28,11,41,10.50
2012,10,28,11,42,10.60
2012,10,28,11,43,10.60
2012,10,28,11,44,10.70
2012,10,28,11,45,10.80
2012,10,28,11,46,10.80
2012,10,28,11,47,10.80
2012,10,28,11,48,10.80
2012,10,28,11,49,10.80
2012,10,28,11,50,10.80
2012,10,28,11,51,10.80
2012,10,28,11,52,10.80
2012,10,28,11,53,10.90
2012,10,28,11,54,10.90
2012,10,28,11,55,11.00
2012,10,28,11,56,11.00
2012,10,28,11,57,11.10
2012,10,28,11,58,11.10
2012,10,28,11,59,11.20
2012,10,28,12,00,11.20
2012,10,28,12,01,11.30
2012,10,28,12,02,11.30
2012,10,28,12,03,11.40
2012,10,28,12,04,11.40
2012,10,28,12,05,11.50
2012,10,28,12,06,11.50
2012,10,28,12,07,11.50
2012,10,28,12,08,11.50
2012,10,28,12,09,11.60
2012,10,28,12,10,11.60
2012,10,28,12,11,11.50
2012,10,28,12,12,11.50
2012,10,28,12,13,11.50
2012,10,28,12,14,11.40
2012,10,28,12,15,11.40
2012,10,28,12,16,11.40
2012,10,28,12,17,11.40
2012,10,28,12,18,11.40
2012,10,28,12,19,11.40
2012,10,28,12,20,11.40
2012,10,28,12,21,11.40
2012,10,28,12,22,11.40
2012,10,28,12,23,11.40
2012,10,28,12,24,11.40
2012,10,28,12,25,11.40
2012,10,28,12,26,11.40
2012,10,28,12,27,11.40
2012,10,28,12,28,11.40
2012,10,28,12,29,11.40
2012,10,28,12,30,11.40
2012,10,28,12,31,11.50
2012,10,28,12,32,11.40
2012,10,28,12,33,11.50
2012,10,28,12,34,11.50
2012,10,28,12,35,11.50
2012,10,28,12,36,11.50
2012,10,28,12,37,11.50
2012,10,28,12,38,11.50
2012,10,28,12,39,11.60
2012,10,28,12,40,11.50
2012,10,28,12,41,11.50
2012,10,28,12,42,11.50
2012,10,28,12,43,11.50
2012,10,28,12,44,11.50
2012,10,28,12,45,11.50
2012,10,28,12,46,11.50
2012,10,28,12,47,11.50
2012,10,28,12,48,11.50
2012,10,28,12,49,11.60
2012,10,28,12,50,11.60
2012,10,28,12,51,11.60
2012,10,28,12,52,11.60
2012,10,28,12,53,11.60
2012,10,28,12,54,11.60
2012,10,28,12,55,11.60
2012,10,28,12,56,11.60
2012,10,28,12,57,11.60
2012,10,28,12,58,11.70
2012,10,28,12,59,11.70
2012,10,28,13,00,11.70
2012,10,28,13,01,11.70
2012,10,28,13,02,11.70
2012,10,28,13,03,11.80
2012,10,28,13,04,11.80
2012,10,28,13,05,11.80
2012,10,28,13,06,11.80
2012,10,28,13,07,11.70
2012,10,28,13,08,11.70
2012,10,28,13,09,11.70
2012,10,28,13,10,11.70
2012,10,28,13,11,11.70
2012,10,28,13,12,11.70
2012,10,28,13,13,11.80
2012,10,28,13,14,11.80
2012,10,28,13,15,11.80
2012,10,28,13,16,11.80
2012,10,28,13,17,11.90
2012,10,28,13,18,12.00
2012,10,28,13,19,12.00
2012,10,28,13,20,12.10
2012,10,28,13,21,12.20
2012,10,28,13,22,12.20
2012,10,28,13,23,12.30
2012,10,28,13,24,12.30
2012,10,28,13,25,12.40
2012,10,28,13,26,12.40
2012,10,28,13,27,12.40
2012,10,28,13,28,12.40
2012,10,28,13,29,12.40
2012,10,28,13,30,12.40
2012,10,28,13,31,12.50
2012,10,28,13,32,12.50
2012,10,28,13,33,12.60
2012,10,28,13,34,12.60
2012,10,28,13,35,12.70
2012,10,28,13,36,12.70
2012,10,28,13,37,12.80
2012,10,28,13,38,12.80
2012,10,28,13,39,12.90
2012,10,28,13,40,12.90
2012,10,28,13,41,12.90
2012,10,28,13,42,12.90
2012,10,28,13,43,12.90
2012,10,28,13,44,12.90
2012,10,28,13,45,12.80
2012,10,28,13,46,12.80
2012,10,28,13,47,12.80
2012,10,28,13,48,12.80
2012,10,28,13,49,12.70
2012,10,28,13,50,12.70
2012,10,28,13,51,12.70
2012,10,28,13,52,12.60
2012,10,28,13,53,12.50
2012,10,28,13,54,12.50
2012,10,28,13,55,12.40
2012,10,28,13,56,12.40
2012,10,28,13,57,12.40
2012,10,28,13,58,12.40
2012,10,28,13,59,12.40
2012,10,28,14,00,12.50
2012,10,28,14,01,12.50
2012,10,28,14,02,12.60
2012,10,28,14,03,12.60
2012,10,28,14,04,12.60
2012,10,28,14,05,12.70
2012,10,28,14,06,12.70
2012,10,28,14,07,12.70
2012,10,28,14,08,12.70
2012,10,28,14,09,12.70
2012,10,28,14,10,12.70
2012,10,28,14,11,12.70
2012,10,28,14,12,12.70
2012,10,28,14,13,12.70
2012,10,28,14,14,12.70
2012,10,28,14,15,12.60
2012,10,28,14,16,12.60
2012,10,28,14,17,12.50
2012,10,28,14,18,12.40
2012,10,28,14,19,12.40
2012,10,28,14,20,12.40
2012,10,28,14,21,12.40
2012,10,28,14,22,12.50
2012,10,28,14,23,12.50
2012,10,28,14,24,12.50
2012,10,28,14,25,12.60
2012,10,28,14,26,12.60
2012,10,28,14,27,12.60
2012,10,28,14,28,12.60
2012,10,28,14,29,12.60
2012,10,28,14,30,12.60
2012,10,28,14,31,12.70
2012,10,28,14,32,12.70
2012,10,28,14,33,12.60
2012,10,28,14,34,12.60
2012,10,28,14,35,12.60
2012,10,28,14,36,12.60
2012,10,28,14,37,12.60
2012,10,28,14,38,12.60
2012,10,28,14,39,12.50
2012,10,28,14,40,12.50
2012,10,28,14,41,12.50
2012,10,28,14,42,12.40
2012,10,28,14,43,12.40
2012,10,28,14,44,12.50
2012,10,28,14,45,12.50
2012,10,28,14,46,12.50
2012,10,28,14,47,12.50
2012,10,28,14,48,12.50
2012,10,28,14,49,12.60
2012,10,28,14,50,12.60
2012,10,28,14,51,12.50
2012,10,28,14,52,12.50
2012,10,28,14,53,12.50
2012,10,28,14,54,12.60
2012,10,28,14,55,12.60
2012,10,28,14,56,12.60
2012,10,28,14,57,12.50
2012,10,28,14,58,12.60
2012,10,28,14,59,12.50
2012,10,28,15,00,12.50
2012,10,28,15,01,12.40
2012,10,28,15,02,12.40
2012,10,28,15,03,12.40
2012,10,28,15,04,12.40
2012,10,28,15,05,12.40
2012,10,28,15,06,12.40
2012,10,28,15,07,12.40
2012,10,28,15,08,12.40
2012,10,28,15,09,12.40
2012,10,28,15,10,12.40
2012,10,28,15,11,12.40
2012,10,28,15,12,12.40
2012,10,28,15,13,12.40
2012,10,28,15,14,12.30
2012,10,28,15,15,12.30
2012,10,28,15,16,12.30
2012,10,28,15,17,12.30
2012,10,28,15,18,12.30
2012,10,28,15,19,12.30
2012,10,28,15,20,12.30
2012,10,28,15,21,12.30
2012,10,28,15,22,12.30
2012,10,28,15,23,12.30
2012,10,28,15,24,12.30
2012,10,28,15,25,12.30
2012,10,28,15,26,12.30
2012,10,28,15,27,12.30
2012,10,28,15,28,12.30
2012,10,28,15,29,12.30
2012,10,28,15,30,12.30
2012,10,28,15,31,12.30
2012,10,28,15,32,12.30
2012,10,28,15,33,12.30
2012,10,28,15,34,12.30
2012,10,28,15,35,12.30
2012,10,28,15,36,12.30
2012,10,28,15,37,12.30
2012,10,28,15,38,12.30
2012,10,28,15,39,12.30
2012,10,28,15,40,12.20
2012,10,28,15,41,12.30
2012,10,28,15,42,12.30
2012,10,28,15,43,12.30
2012,10,28,15,44,12.30
2012,10,28,15,45,12.30
2012,10,28,15,46,12.30
2012,10,28,15,47,12.30
2012,10,28,15,48,12.30
2012,10,28,15,49,12.30
2012,10,28,15,50,12.30
2012,10,28,15,51,12.30
2012,10,28,15,52,12.30
2012,10,28,15,53,12.40
2012,10,28,15,54,12.40
2012,10,28,15,55,12.50
2012,10,28,15,56,12.50
2012,10,28,15,57,12.60
2012,10,28,15,58,12.60
2012,10,28,15,59,12.60
2012,10,28,16,00,12.70
2012,10,28,16,01,12.70
2012,10,28,16,02,12.70
2012,10,28,16,03,12.70
2012,10,28,16,04,12.70
2012,10,28,16,05,12.70
2012,10,28,16,06,12.60
2012,10,28,16,07,12.60
2012,10,28,16,08,12.50
2012,10,28,16,09,12.50
2012,10,28,16,10,12.40
2012,10,28,16,11,12.40
2012,10,28,16,12,12.30
2012,10,28,16,13,12.30
2012,10,28,16,14,12.30
2012,10,28,16,15,12.20
2012,10,28,16,16,12.20
2012,10,28,16,17,12.20
2012,10,28,16,18,12.10
2012,10,28,16,19,12.10
2012,10,28,16,20,12.00
2012,10,28,16,21,12.00
2012,10,28,16,22,11.90
2012,10,28,16,23,11.90
2012,10,28,16,24,11.80
2012,10,28,16,25,11.80
2012,10,28,16,26,11.80
2012,10,28,16,27,11.80
2012,10,28,16,28,11.80
2012,10,28,16,29,11.80
2012,10,28,16,30,11.70
2012,10,28,16,31,11.70
2012,10,28,16,32,11.70
2012,10,28,16,33,11.70
2012,10,28,16,34,11.60
2012,10,28,16,35,11.60
2012,10,28,16,36,11.60
2012,10,28,16,37,11.50
2012,10,28,16,38,11.50
2012,10,28,16,39,11.50
2012,10,28,16,40,11.50
2012,10,28,16,41,11.40
2012,10,28,16,42,11.40
2012,10,28,16,43,11.40
2012,10,28,16,44,11.40
2012,10,28,16,45,11.40
2012,10,28,16,46,11.40
2012,10,28,16,47,11.40
2012,10,28,16,48,11.40
2012,10,28,16,49,11.40
2012,10,28,16,50,11.40
2012,10,28,16,51,11.40
2012,10,28,16,52,11.40
2012,10,28,16,53,11.40
2012,10,28,16,54,11.40
2012,10,28,16,55,11.40
2012,10,28,16,56,11.40
2012,10,28,16,57,11.40
2012,10,28,16,58,11.40
2012,10,28,16,59,11.40
2012,10,28,17,00,11.40
2012,10,28,17,01,11.40
2012,10,28,17,02,11.40
2012,10,28,17,03,11.40
2012,10,28,17,04,11.40
2012,10,28,17,05,11.40
2012,10,28,17,06,11.40
2012,10,28,17,07,11.30
2012,10,28,17,08,11.30
2012,10,28,17,09,11.30
2012,10,28,17,10,11.30
2012,10,28,17,11,11.30
2012,10,28,17,12,11.30
2012,10,28,17,13,11.30
2012,10,28,17,14,11.20
2012,10,28,17,15,11.20
2012,10,28,17,16,11.20
2012,10,28,17,17,11.20
2012,10,28,17,18,11.10
2012,10,28,17,19,11.10
2012,10,28,17,20,11.10
2012,10,28,17,21,11.00
2012,10,28,17,22,11.00
2012,10,28,17,23,11.00
2012,10,28,17,24,10.90
2012,10,28,17,25,10.90
2012,10,28,17,26,10.90
2012,10,28,17,27,10.90
2012,10,28,17,28,10.80
2012,10,28,17,29,10.80
2012,10,28,17,30,10.80
2012,10,28,17,31,10.80
2012,10,28,17,32,10.80
2012,10,28,17,33,10.70
2012,10,28,17,34,10.70
2012,10,28,17,35,10.70
2012,10,28,17,36,10.70
2012,10,28,17,37,10.70
2012,10,28,17,38,10.70
2012,10,28,17,39,10.60
2012,10,28,17,40,10.60
2012,10,28,17,41,10.60
2012,10,28,17,42,10.50
2012,10,28,17,43,10.50
2012,10,28,17,44,10.50
2012,10,28,17,45,10.40
2012,10,28,17,46,10.40
2012,10,28,17,47,10.40
2012,10,28,17,48,10.30
2012,10,28,17,49,10.30